Strona główna
METAR-TAF:

METAR-TAF

Lotnisko :

Hartness State Airport

Springfield, Vermont, Stany Zjednoczone

Szerokość geograficzna: 43-20-33N, Długość geograficzna: 072-31-18W, wysokość: 175 m

Aktualna obserwacja pogody

Raport powstał 55 minut temu, godzina 21:54 UTC
Cisza
Temperatura 1°C
Wilgotność 86%
Ciśnienie 1016 hPa
Widzialność: 16.1 km
Zachmurzenie całkowite na wysokości 1900 ft

METAR: KVSF 162154Z AUTO 00000KT 10SM OVC019 01/M01 A2999 RMK AO2 SLP162 T00061006

czas: 17:49 (22:49 UTC)


TAF: brakujący

Obserwacja i prognoza pogody dla ponad 4000 lotnisk (raport METAR i TAF).

Dostępne stacje oznaczono żółtymi i czerwonymi punktami na mapie.

Najedź kursorem aby zobaczyć nazwę stacji.

Kliknij aby zobaczyć obserwacje i prognozy pogody.

Aby zmienić mapę: kliknij na zielony przycisk z czarnym krzyżykiem, aby powiększyć; na zielony przycisk z myślnikiem, aby pomniejszyć; na zielone strzałki, aby przejść do map sąsiednich.


METAR-TAF: